Location: Newark
(39.0083°N, 20.7336°E)
Time: 21:48:25
(UTC+00:00)

ISS - Pass Details

Date: 30 September 2021
Orbit: 418 x 423 km, 51.6° (Epoch: 15 October)

Event Time Altitude Azimuth Distance (km) Brightness Sun altitude
Rises 17:28:21 0° 316° (NW) 2,366 0.9 -13.9°
Reaches altitude 10° 17:31:07 10° 341° (NNW) 1,501 -0.6 -14.4°
Maximum altitude 17:33:11 15° 19° (NNE) 1,221 -1.5 -14.8°
Enters shadow 17:34:08 14° 38° (NE) 1,284 -1.6 -15.0°
